Location: Riverside Cemetery
(38.3047°N, 99.7773°W)
Time: 10:56:55
(UTC+00:00)

NOSS 3-3 (A) - Pass Details

Date: 19 September 2020
Orbit: 827 x 1385 km, 63.4° (Epoch: 27 October)

Event Time Altitude Azimuth Distance (km) Brightness Sun altitude
Exits shadow 09:44:54 44° 133° (SE) 1,211 4.5 -30.8°
Maximum altitude 09:45:31 45° 115° (ESE) 1,193 4.6 -30.7°
Drops below altitude 10° 09:51:24 10° 44° (NE) 2,712 7.2 -29.6°
Sets 09:54:13 0° 39° (NE) 3,747 8.0 -29.2°
